DW7249 Cayey PR US current weather conditions

sailwx.info

Wind from 141

Air temperature 27.2° C
Dewpoint 21.3° C

Last reported at 2020-Jul-10 22:01 UTC.
Time now 2020-Jul-10 23:04 UTC

Location: N 18°08' W 066°08'.
View on Google Maps.

See reports from other nearby stations

  
Tides and Currents Weather Stations Pressure Air Temp Water Temp Dewpoint Dewpoint Depression Visibility Wind Speed Wind Dir Waves Ship Positions
date/time (UTC)wind fromknots sea level pressurealtimeterstation pressurevisibilityair tempwater tempwave heightnotes
2020-Jul-10 22:01 141 27.2
2020-Jul-10 21:45 122 27.2
2020-Jul-10 21:31 193 27.8
2020-Jul-10 21:16 131 27.2
2020-Jul-10 21:00 113 1 gusting 9 28.3
2020-Jul-10 20:45 169 28.9
2020-Jul-10 20:30 154 29.4
2020-Jul-10 20:15 120 0 gusting 10 28.9
2020-Jul-10 20:00 165 1 gusting 8 28.9
2020-Jul-10 19:45 120 2 gusting 8 28.9
2020-Jul-10 19:30 120 28.9
2020-Jul-10 19:15 162 2 gusting 10 29.4
2020-Jul-10 19:00 135 29.4
2020-Jul-10 18:45 179 1 gusting 12 28.9
2020-Jul-10 18:30 132 28.3
2020-Jul-10 18:16 152 1 gusting 10 29.4
2020-Jul-10 18:01 115 1 gusting 10 30.0
2020-Jul-10 17:46 088 0 gusting 11 30.0
2020-Jul-10 17:32 075 30.0
2020-Jul-10 17:16 156 29.4
2020-Jul-10 17:00 152 30.0
2020-Jul-10 16:46 125 3 gusting 9 30.0
2020-Jul-10 16:31 103 2 gusting 10 29.4
2020-Jul-10 16:16 118 1 gusting 8 29.4
2020-Jul-10 16:02 043 28.9
2020-Jul-10 15:46 144 2 gusting 9 27.8
2020-Jul-10 15:32 113 28.3
2020-Jul-10 15:16 181 28.3
2020-Jul-10 15:01 108 0 gusting 8 28.9
2020-Jul-10 14:46 155 1 gusting 10 28.9
2020-Jul-10 14:30 138 2 gusting 9 28.9
2020-Jul-10 14:16 125 2 gusting 10 28.3
2020-Jul-10 14:01 131 4 gusting 13 28.3
2020-Jul-10 13:46 160 27.8
2020-Jul-10 13:31 087 1 gusting 9 27.2
2020-Jul-10 13:16 167 27.2
2020-Jul-10 13:01 135 26.7
2020-Jul-10 12:45 162 26.1
2020-Jul-10 12:30 102 26.1
2020-Jul-10 12:15 169 26.1
2020-Jul-10 12:00 110 2 gusting 12 25.6
2020-Jul-10 11:45 080 25.0
2020-Jul-10 11:31 123 24.4
2020-Jul-10 11:17 096 24.4
2020-Jul-10 10:46 143 23.9
2020-Jul-10 10:31 108 23.3
2020-Jul-10 10:15 080 23.3
2020-Jul-10 10:01 097 23.3
2020-Jul-10 09:47 094 23.9
2020-Jul-10 09:31 090 23.9
2020-Jul-10 09:15 117 23.9
2020-Jul-10 09:00 090 23.9
2020-Jul-10 08:46 126 23.9
2020-Jul-10 08:30 123 23.9
2020-Jul-10 08:15 095 23.9
2020-Jul-10 08:00 118 23.9
2020-Jul-10 07:45 136 23.9
2020-Jul-10 07:30 125 23.9
2020-Jul-10 07:15 120 23.9
2020-Jul-10 07:00 120 23.9
2020-Jul-10 06:31 137 24.4
2020-Jul-10 06:16 105 24.4
2020-Jul-10 06:01 142 24.4
2020-Jul-10 05:45 108 24.4
2020-Jul-10 05:31 102 0 gusting 6 24.4
2020-Jul-10 05:16 096 24.4
2020-Jul-10 05:01 100 24.4
2020-Jul-10 04:45 107 24.4
2020-Jul-10 04:31 134 24.4
2020-Jul-10 04:15 127 24.4
2020-Jul-10 04:00 109 24.4
2020-Jul-10 03:45 122 24.4
2020-Jul-10 03:31 136 24.4
2020-Jul-10 03:18 159 24.4
2020-Jul-10 03:01 134 24.4
2020-Jul-10 02:46 118 24.4
2020-Jul-10 02:31 133 24.4
2020-Jul-10 02:16 085 24.4
2020-Jul-10 02:00 097 24.4
2020-Jul-10 01:46 120 24.4
2020-Jul-10 01:31 079 25.0
2020-Jul-10 01:16 119 25.0
2020-Jul-10 01:00 126 25.0
2020-Jul-10 00:46 077 25.0
2020-Jul-10 00:30 097 25.0
2020-Jul-10 00:15 096 25.0
2020-Jul-10 00:02 114 25.0
2020-Jul-09 23:47 097 25.6
2020-Jul-09 23:31 103 25.6
2020-Jul-09 23:15 148 26.1
2020-Jul-09 23:01 187 26.7
2020-Jul-09 22:47 112 26.7
2020-Jul-09 22:30 153 27.2
2020-Jul-09 22:16 158 27.2
2020-Jul-09 22:00 118 27.2
2020-Jul-09 21:45 145 0 gusting 6 27.8
2020-Jul-09 21:31 179 27.8
2020-Jul-09 21:16 107 28.3
2020-Jul-09 21:03 173 0 gusting 8 28.3
2020-Jul-09 20:45 145 28.9
2020-Jul-09 20:30 143 28.9
2020-Jul-09 20:16 169 0 gusting 8 28.9
2020-Jul-09 20:00 131 29.4
2020-Jul-09 19:45 155 0 gusting 7 30.0
2020-Jul-09 19:30 170 29.4
2020-Jul-09 19:15 125 29.4
2020-Jul-09 19:00 134 4 gusting 10 29.4
2020-Jul-09 18:46 167 30.0
2020-Jul-09 18:31 200 29.4
2020-Jul-09 18:15 106 1 gusting 8 30.0
2020-Jul-09 18:00 196 30.0
2020-Jul-09 17:45 110 30.0
2020-Jul-09 17:30 132 1 gusting 10 30.0
2020-Jul-09 17:15 111 30.6
2020-Jul-09 17:00 155 0 gusting 9 30.0
2020-Jul-09 16:45 181 4 gusting 9 30.0
2020-Jul-09 16:30 127 6 gusting 11 29.4
2020-Jul-09 16:17 132 4 gusting 11 30.0
2020-Jul-09 16:01 141 3 gusting 10 29.4
2020-Jul-09 15:45 131 5 gusting 10 28.9
2020-Jul-09 15:30 108 4 gusting 11 28.9
2020-Jul-09 15:15 153 3 gusting 11 28.9
2020-Jul-09 15:00 155 4 gusting 10 28.9
2020-Jul-09 14:45 158 4 gusting 11 28.3
2020-Jul-09 14:30 131 4 gusting 9 27.8
2020-Jul-09 14:16 116 4 gusting 7 27.2
2020-Jul-09 14:02 110 3 gusting 7 26.7
2020-Jul-09 13:46 110 3 gusting 7 26.1
2020-Jul-09 13:32 098 2 gusting 8 25.6
2020-Jul-09 13:16 159 3 gusting 6 25.6
2020-Jul-09 13:01 123 1 gusting 4 26.1
2020-Jul-09 12:46 122 1 gusting 6 25.6
2020-Jul-09 12:31 108 0 gusting 5 25.6
2020-Jul-09 12:15 120 1 gusting 6 25.6
2020-Jul-09 12:00 126 2 gusting 5 25.6
2020-Jul-09 11:46 097 0 gusting 6 25.6
2020-Jul-09 11:30 077 1 gusting 4 25.6
2020-Jul-09 11:16 104 25.0
2020-Jul-09 11:00 101 0 gusting 2 24.4
2020-Jul-09 10:45 072 0 gusting 2 23.9
2020-Jul-09 10:30 145 23.9
2020-Jul-09 10:16 108 0 gusting 3 23.9
2020-Jul-09 10:02 121 23.3
2020-Jul-09 09:46 106 1 gusting 5 23.3
2020-Jul-09 09:31 113 1 gusting 4 23.3
2020-Jul-09 09:16 102 1 gusting 4 23.9
2020-Jul-09 09:01 145 1 gusting 5 23.9
2020-Jul-09 08:46 135 1 gusting 6 23.9
2020-Jul-09 08:31 145 1 gusting 4 23.9
2020-Jul-09 08:15 141 23.9
2020-Jul-09 08:01 142 1 gusting 5 23.9
2020-Jul-09 07:45 115 0 gusting 5 23.9
2020-Jul-09 07:30 129 1 gusting 6 23.9
2020-Jul-09 07:16 139 2 gusting 6 23.9
2020-Jul-09 07:00 166 2 gusting 7 23.9
2020-Jul-09 06:45 134 3 gusting 6 23.9
2020-Jul-09 06:30 142 4 gusting 8 23.9
2020-Jul-09 06:15 149 2 gusting 7 23.9
2020-Jul-09 06:00 105 3 gusting 6 23.9
2020-Jul-09 05:48 119 2 gusting 5 23.9
2020-Jul-09 05:31 128 2 gusting 6 23.9
2020-Jul-09 05:16 153 3 gusting 6 23.9
2020-Jul-09 05:01 118 3 gusting 5 23.9
2020-Jul-09 04:46 136 2 gusting 5 23.9
2020-Jul-09 04:31 094 1 gusting 3 23.9
2020-Jul-09 04:16 106 0 gusting 3 23.9
2020-Jul-09 04:02 101 0 gusting 2 23.9
2020-Jul-09 03:46 131 0 gusting 3 23.9
2020-Jul-09 03:30 113 0 gusting 3 23.9
2020-Jul-09 03:16 125 23.9
2020-Jul-09 03:01 104 0 gusting 2 23.9
2020-Jul-09 02:45 094 23.9
2020-Jul-09 02:30 077 23.9
2020-Jul-09 02:16 065 23.9
2020-Jul-09 02:01 065 23.9
2020-Jul-09 01:46 065 24.4
2020-Jul-09 01:30 116 24.4
2020-Jul-09 01:16 131 24.4
2020-Jul-09 01:00 062 24.4
2020-Jul-09 00:46 004 24.4
2020-Jul-09 00:30 020 25.0
2020-Jul-09 00:15 123 25.0
2020-Jul-09 00:00 116 25.0
2020-Jul-08 23:49 129 25.0
2020-Jul-08 23:33 108 25.6
2020-Jul-08 23:17 118 25.6
2020-Jul-08 23:01 136 25.6